Time,TemperatureF,DewpointF,PressureIn,WindDirection,WindDirectionDegrees,WindSpeedMPH,WindSpeedGustMPH,Humidity,HourlyPrecipIn,Conditions,Clouds,dailyrainin,SoftwareType,DateUTC
2013-10-06 00:02:00,60.0,47.8,29.09,SSW,205,0.0,0.0,64,0.00,,---,0.79,VWS V14.00,2013-10-06 05:02:00,
2013-10-06 00:03:00,60.0,47.8,29.09,SSW,205,0.0,0.0,64,0.00,,---,0.00,VWS V14.00,2013-10-06 05:03:00,
2013-10-06 00:08:00,60.0,47.8,29.09,SSW,205,0.0,0.0,64,0.00,,---,0.00,VWS V14.00,2013-10-06 05:08:00,
2013-10-06 00:14:00,60.0,47.8,29.09,WSW,252,0.0,0.0,64,0.00,,---,0.00,VWS V14.00,2013-10-06 05:14:00,
2013-10-06 00:17:00,60.0,47.8,29.09,SSW,206,0.0,0.0,64,0.00,,---,0.00,VWS V14.00,2013-10-06 05:17:00,
2013-10-06 00:20:00,60.0,47.8,29.09,SSW,206,0.0,0.0,64,0.00,,---,0.00,VWS V14.00,2013-10-06 05:20:00,
2013-10-06 00:23:00,60.0,47.8,29.09,North,9,0.0,0.0,64,0.00,,---,0.00,VWS V14.00,2013-10-06 05:23:00,
2013-10-06 00:29:00,60.0,47.8,29.09,SSW,193,0.0,0.0,64,0.00,,---,0.00,VWS V14.00,2013-10-06 05:29:00,
2013-10-06 00:32:00,60.0,47.8,29.09,SSW,193,0.0,0.0,64,0.00,,---,0.00,VWS V14.00,2013-10-06 05:32:00,
2013-10-06 00:35:00,60.0,47.8,29.09,ESE,119,0.0,0.0,64,0.00,,---,0.00,VWS V14.00,2013-10-06 05:35:00,
2013-10-06 00:38:00,60.0,47.8,29.09,ESE,119,0.0,0.0,64,0.00,,---,0.00,VWS V14.00,2013-10-06 05:38:00,
2013-10-06 00:41:00,59.8,48.0,29.09,NW,316,0.0,0.0,65,0.00,,---,0.00,VWS V14.00,2013-10-06 05:41:00,
2013-10-06 00:47:00,59.8,48.0,29.09,NNE,17,2.7,2.7,65,0.00,,---,0.00,VWS V14.00,2013-10-06 05:47:00,
2013-10-06 00:50:00,59.8,48.0,29.09,WSW,247,0.0,2.7,65,0.00,,---,0.00,VWS V14.00,2013-10-06 05:50:00,
2013-10-06 00:53:00,59.8,48.0,29.09,North,349,0.0,2.7,65,0.00,,---,0.00,VWS V14.00,2013-10-06 05:53:00,
2013-10-06 00:56:00,59.8,48.0,29.06,ENE,60,0.0,2.7,65,0.00,,---,0.00,VWS V14.00,2013-10-06 05:56:00,
2013-10-06 01:02:00,59.8,48.0,29.06,NNE,19,0.0,2.7,65,0.00,,---,0.00,VWS V14.00,2013-10-06 06:02:00,
2013-10-06 01:05:00,59.8,48.0,29.06,NNE,19,0.0,0.0,65,0.00,,---,0.00,VWS V14.00,2013-10-06 06:05:00,
2013-10-06 01:08:00,59.4,47.2,29.06,SSE,164,0.0,0.0,64,0.00,,---,0.00,VWS V14.00,2013-10-06 06:08:00,
2013-10-06 01:14:00,59.4,47.2,29.06,SSW,195,3.1,3.1,64,0.00,,---,0.00,VWS V14.00,2013-10-06 06:14:00,
2013-10-06 01:17:00,59.4,47.2,29.06,SSW,195,3.1,3.1,64,0.00,,---,0.00,VWS V14.00,2013-10-06 06:17:00,
2013-10-06 01:18:00,59.4,47.2,29.06,SSW,195,3.1,3.1,64,0.00,,---,0.00,VWS V14.00,2013-10-06 06:18:00,
2013-10-06 01:20:00,59.4,47.2,29.06,SSW,196,0.0,3.1,64,0.00,,---,0.00,VWS V14.00,2013-10-06 06:20:00,
2013-10-06 01:23:00,59.4,47.2,29.06,SW,224,0.0,3.1,64,0.00,,---,0.00,VWS V14.00,2013-10-06 06:23:00,
2013-10-06 01:26:00,59.4,47.2,29.06,SW,224,0.0,3.1,64,0.00,,---,0.00,VWS V14.00,2013-10-06 06:26:00,
2013-10-06 01:29:00,59.4,47.2,29.06,South,186,0.0,3.1,64,0.00,,---,0.00,VWS V14.00,2013-10-06 06:29:00,
2013-10-06 01:35:00,59.4,47.2,29.06,North,0,0.0,0.0,64,0.00,,---,0.00,VWS V14.00,2013-10-06 06:35:00,
2013-10-06 01:38:00,59.4,47.2,29.06,East,96,0.0,0.0,64,0.00,,---,0.00,VWS V14.00,2013-10-06 06:38:00,
2013-10-06 01:41:00,58.9,46.7,29.06,NNE,17,0.0,0.0,64,0.00,,---,0.00,VWS V14.00,2013-10-06 06:41:00,
2013-10-06 01:44:00,58.9,46.7,29.06,SSW,200,0.0,0.0,64,0.00,,---,0.00,VWS V14.00,2013-10-06 06:44:00,
2013-10-06 01:47:00,58.9,46.7,29.06,SW,217,0.0,0.0,64,0.00,,---,0.00,VWS V14.00,2013-10-06 06:47:00,
2013-10-06 01:50:00,58.9,46.7,29.06,SW,221,0.0,0.0,64,0.00,,---,0.00,VWS V14.00,2013-10-06 06:50:00,
2013-10-06 01:53:00,58.9,46.7,29.06,SW,221,0.0,0.0,64,0.00,,---,0.00,VWS V14.00,2013-10-06 06:53:00,
2013-10-06 01:56:00,58.9,46.7,29.06,SW,221,0.0,0.0,64,0.00,,---,0.00,VWS V14.00,2013-10-06 06:56:00,
2013-10-06 01:59:00,58.9,46.7,29.06,NE,54,0.0,0.0,64,0.00,,---,0.00,VWS V14.00,2013-10-06 06:59:00,
2013-10-06 02:02:00,58.9,46.7,29.06,NE,54,0.0,0.0,64,0.00,,---,0.00,VWS V14.00,2013-10-06 07:02:00,
2013-10-06 02:05:00,58.9,46.7,29.06,North,10,0.0,0.0,64,0.00,,---,0.00,VWS V14.00,2013-10-06 07:05:00,
2013-10-06 02:11:00,58.9,46.7,29.06,North,10,0.0,0.0,64,0.00,,---,0.00,VWS V14.00,2013-10-06 07:11:00,
2013-10-06 02:14:00,58.9,46.7,29.06,North,10,0.0,0.0,64,0.00,,---,0.00,VWS V14.00,2013-10-06 07:14:00,
2013-10-06 02:17:00,58.9,46.7,29.06,North,10,0.0,0.0,64,0.00,,---,0.00,VWS V14.00,2013-10-06 07:17:00,
2013-10-06 02:20:00,58.7,46.6,29.06,North,357,0.0,0.0,64,0.00,,---,0.00,VWS V14.00,2013-10-06 07:20:00,
2013-10-06 02:23:00,58.7,46.6,29.06,ESE,113,0.0,0.0,64,0.00,,---,0.00,VWS V14.00,2013-10-06 07:23:00,
2013-10-06 02:26:00,58.7,46.6,29.06,WSW,240,0.0,0.0,64,0.00,,---,0.00,VWS V14.00,2013-10-06 07:26:00,
2013-10-06 02:29:00,58.7,46.6,29.06,SSW,211,0.0,0.0,64,0.00,,---,0.00,VWS V14.00,2013-10-06 07:29:00,
2013-10-06 02:32:00,58.7,46.6,29.06,SSW,209,0.0,0.0,64,0.00,,---,0.00,VWS V14.00,2013-10-06 07:32:00,
2013-10-06 02:38:00,58.7,46.6,29.06,ENE,58,0.0,0.0,64,0.00,,---,0.00,VWS V14.00,2013-10-06 07:38:00,
2013-10-06 02:41:00,58.7,46.6,29.06,WSW,240,0.0,0.0,64,0.00,,---,0.00,VWS V14.00,2013-10-06 07:41:00,
2013-10-06 02:47:00,58.7,46.6,29.06,NE,34,0.0,0.0,64,0.00,,---,0.00,VWS V14.00,2013-10-06 07:47:00,
2013-10-06 02:48:00,58.7,46.6,29.06,NE,34,0.0,0.0,64,0.00,,---,0.00,VWS V14.00,2013-10-06 07:48:00,
2013-10-06 02:53:00,58.3,46.2,29.06,NNE,30,0.0,0.0,64,0.00,,---,0.00,VWS V14.00,2013-10-06 07:53:00,
2013-10-06 02:56:00,58.3,46.2,29.03,NNE,30,0.0,0.0,64,0.00,,---,0.00,VWS V14.00,2013-10-06 07:56:00,
2013-10-06 02:59:00,58.3,46.2,29.03,NNE,30,0.0,0.0,64,0.00,,---,0.00,VWS V14.00,2013-10-06 07:59:00,
2013-10-06 03:02:00,58.3,46.2,29.03,NNE,30,0.0,0.0,64,0.00,,---,0.00,VWS V14.00,2013-10-06 08:02:00,
2013-10-06 03:03:00,58.3,46.2,29.03,SSE,155,0.0,0.0,64,0.00,,---,0.00,VWS V14.00,2013-10-06 08:03:00,
2013-10-06 03:08:00,58.3,46.2,29.03,SW,235,0.0,0.0,64,0.00,,---,0.00,VWS V14.00,2013-10-06 08:08:00,
2013-10-06 03:11:00,58.3,46.2,29.03,NE,34,0.0,0.0,64,0.00,,---,0.00,VWS V14.00,2013-10-06 08:11:00,
2013-10-06 03:14:00,58.3,46.2,29.03,NE,34,0.0,0.0,64,0.00,,---,0.00,VWS V14.00,2013-10-06 08:14:00,
2013-10-06 03:17:00,58.3,46.2,29.03,SSW,196,0.0,0.0,64,0.00,,---,0.00,VWS V14.00,2013-10-06 08:17:00,
2013-10-06 03:20:00,58.3,46.2,29.03,SSW,196,0.0,0.0,64,0.00,,---,0.00,VWS V14.00,2013-10-06 08:20:00,
2013-10-06 03:26:00,57.8,45.7,29.03,West,272,2.2,2.2,64,0.00,,---,0.00,VWS V14.00,2013-10-06 08:26:00,
2013-10-06 03:29:00,57.8,45.7,29.03,West,272,2.2,2.2,64,0.00,,---,0.00,VWS V14.00,2013-10-06 08:29:00,
2013-10-06 03:32:00,57.8,45.7,29.03,South,185,0.0,2.2,64,0.00,,---,0.00,VWS V14.00,2013-10-06 08:32:00,
2013-10-06 03:35:00,57.8,45.7,29.03,SW,226,0.0,0.0,64,0.00,,---,0.00,VWS V14.00,2013-10-06 08:35:00,
2013-10-06 03:38:00,57.8,45.7,29.03,SW,226,0.0,0.0,64,0.00,,---,0.00,VWS V14.00,2013-10-06 08:38:00,
2013-10-06 03:41:00,57.8,45.7,29.06,SSW,195,0.0,2.2,64,0.00,,---,0.00,VWS V14.00,2013-10-06 08:41:00,
2013-10-06 03:47:00,57.8,45.7,29.06,SSW,195,0.0,2.2,64,0.00,,---,0.00,VWS V14.00,2013-10-06 08:47:00,
2013-10-06 03:48:00,57.8,45.7,29.06,SSW,195,0.0,2.2,64,0.00,,---,0.00,VWS V14.00,2013-10-06 08:48:00,
2013-10-06 03:53:00,57.6,45.5,29.06,SW,224,0.0,0.0,64,0.00,,---,0.00,VWS V14.00,2013-10-06 08:53:00,
2013-10-06 03:56:00,57.6,45.5,29.06,WSW,258,0.0,0.0,64,0.00,,---,0.00,VWS V14.00,2013-10-06 08:56:00,
2013-10-06 03:59:00,57.6,45.5,29.06,North,9,0.0,0.0,64,0.00,,---,0.00,VWS V14.00,2013-10-06 08:59:00,
2013-10-06 04:02:00,57.6,45.5,29.06,East,89,0.0,0.0,64,0.00,,---,0.00,VWS V14.00,2013-10-06 09:02:00,
2013-10-06 04:05:00,57.6,45.5,29.06,North,0,0.0,0.0,64,0.00,,---,0.00,VWS V14.00,2013-10-06 09:05:00,
2013-10-06 04:08:00,57.6,45.5,29.06,North,0,0.0,0.0,64,0.00,,---,0.00,VWS V14.00,2013-10-06 09:08:00,
2013-10-06 04:11:00,57.6,45.5,29.06,ENE,61,0.0,0.0,64,0.00,,---,0.00,VWS V14.00,2013-10-06 09:11:00,
2013-10-06 04:14:00,57.6,45.5,29.06,SW,231,0.0,0.0,64,0.00,,---,0.00,VWS V14.00,2013-10-06 09:14:00,
2013-10-06 04:17:00,57.6,45.5,29.06,North,0,0.0,0.0,64,0.00,,---,0.00,VWS V14.00,2013-10-06 09:17:00,
2013-10-06 04:20:00,57.6,45.5,29.06,North,0,0.0,0.0,64,0.00,,---,0.00,VWS V14.00,2013-10-06 09:20:00,
2013-10-06 04:23:00,57.6,45.5,29.06,SW,229,0.0,0.0,64,0.00,,---,0.00,VWS V14.00,2013-10-06 09:23:00,
2013-10-06 04:26:00,57.6,45.5,29.06,SW,229,0.0,0.0,64,0.00,,---,0.00,VWS V14.00,2013-10-06 09:26:00,
2013-10-06 04:29:00,57.3,44.4,29.06,SW,230,0.0,0.0,62,0.00,,---,0.00,VWS V14.00,2013-10-06 09:29:00,
2013-10-06 04:32:00,57.3,44.4,29.06,SSW,199,2.7,2.7,62,0.00,,---,0.00,VWS V14.00,2013-10-06 09:32:00,
2013-10-06 04:36:00,57.3,44.4,29.06,SW,221,0.0,2.7,62,0.00,,---,0.00,VWS V14.00,2013-10-06 09:36:00,
2013-10-06 04:42:00,57.3,44.4,29.06,SSW,210,0.0,2.7,62,0.00,,---,0.00,VWS V14.00,2013-10-06 09:42:00,
2013-10-06 04:45:00,57.3,44.4,29.06,SSW,209,0.0,2.7,62,0.00,,---,0.00,VWS V14.00,2013-10-06 09:45:00,
2013-10-06 04:51:00,57.3,44.4,29.06,SSW,209,0.0,0.0,62,0.00,,---,0.00,VWS V14.00,2013-10-06 09:51:00,
2013-10-06 04:54:00,57.3,44.4,29.06,SSW,209,0.0,0.0,62,0.00,,---,0.00,VWS V14.00,2013-10-06 09:54:00,
2013-10-06 05:00:00,56.9,44.0,29.06,SSW,201,0.0,0.0,62,0.00,,---,0.00,VWS V14.00,2013-10-06 10:00:00,
2013-10-06 05:03:00,56.9,44.0,29.06,SW,234,0.0,0.0,62,0.00,,---,0.00,VWS V14.00,2013-10-06 10:03:00,
2013-10-06 05:06:00,56.9,44.0,29.06,SW,236,0.0,0.0,62,0.00,,---,0.00,VWS V14.00,2013-10-06 10:06:00,
2013-10-06 05:09:00,56.7,43.9,29.06,WSW,237,0.0,0.0,62,0.00,,---,0.00,VWS V14.00,2013-10-06 10:09:00,
2013-10-06 05:15:00,56.7,43.9,29.06,ESE,111,0.0,2.7,62,0.00,,---,0.00,VWS V14.00,2013-10-06 10:15:00,
2013-10-06 05:17:00,56.7,43.9,29.06,South,191,0.0,2.7,62,0.00,,---,0.00,VWS V14.00,2013-10-06 10:17:00,
2013-10-06 05:18:00,56.7,43.9,29.06,South,191,0.0,2.7,62,0.00,,---,0.00,VWS V14.00,2013-10-06 10:18:00,
2013-10-06 05:21:00,56.7,43.9,29.06,North,1,0.0,0.0,62,0.00,,---,0.00,VWS V14.00,2013-10-06 10:21:00,
2013-10-06 05:24:00,56.7,43.9,29.06,SW,230,0.0,0.0,62,0.00,,---,0.00,VWS V14.00,2013-10-06 10:24:00,
2013-10-06 05:27:00,56.7,43.9,29.06,West,268,0.0,0.0,62,0.00,,---,0.00,VWS V14.00,2013-10-06 10:27:00,
2013-10-06 05:30:00,56.7,43.9,29.06,NNW,345,0.0,0.0,62,0.00,,---,0.00,VWS V14.00,2013-10-06 10:30:00,
2013-10-06 05:32:00,56.7,43.9,29.06,West,267,0.0,0.0,62,0.00,,---,0.00,VWS V14.00,2013-10-06 10:32:00,
2013-10-06 05:33:00,56.7,43.9,29.06,West,267,0.0,0.0,62,0.00,,---,0.00,VWS V14.00,2013-10-06 10:33:00,
2013-10-06 05:36:00,56.5,43.7,29.06,SW,229,0.0,0.0,62,0.00,,---,0.00,VWS V14.00,2013-10-06 10:36:00,
2013-10-06 05:39:00,56.4,43.5,29.06,WSW,237,0.0,0.0,62,0.00,,---,0.00,VWS V14.00,2013-10-06 10:39:00,
2013-10-06 05:42:00,56.4,43.5,29.06,SW,233,0.0,0.0,62,0.00,,---,0.00,VWS V14.00,2013-10-06 10:42:00,
2013-10-06 05:48:00,56.4,43.1,29.06,SW,216,0.0,0.0,61,0.00,,---,0.00,VWS V14.00,2013-10-06 10:48:00,
2013-10-06 05:51:00,56.4,43.1,29.06,SW,216,0.0,0.0,61,0.00,,---,0.00,VWS V14.00,2013-10-06 10:51:00,
2013-10-06 05:54:00,56.4,43.1,29.06,SW,216,0.0,0.0,61,0.00,,---,0.00,VWS V14.00,2013-10-06 10:54:00,
2013-10-06 06:00:00,56.2,42.9,29.06,NNE,24,0.0,0.0,61,0.00,,---,0.00,VWS V14.00,2013-10-06 11:00:00,
2013-10-06 06:03:00,56.2,42.9,29.06,NNE,24,0.0,0.0,61,0.00,,---,0.00,VWS V14.00,2013-10-06 11:03:00,
2013-10-06 06:06:00,56.2,42.9,29.06,North,353,0.0,0.0,61,0.00,,---,0.00,VWS V14.00,2013-10-06 11:06:00,
2013-10-06 06:09:00,56.2,42.9,29.06,North,353,0.0,0.0,61,0.00,,---,0.00,VWS V14.00,2013-10-06 11:09:00,
2013-10-06 06:15:00,56.2,42.5,29.06,SSW,195,2.2,2.2,60,0.00,,---,0.00,VWS V14.00,2013-10-06 11:15:00,
2013-10-06 06:17:00,56.0,42.3,29.06,SSW,195,2.2,2.2,60,0.00,,---,0.00,VWS V14.00,2013-10-06 11:17:00,
2013-10-06 06:21:00,56.0,42.3,29.06,SSW,195,2.2,2.2,60,0.00,,---,0.00,VWS V14.00,2013-10-06 11:21:00,
2013-10-06 06:24:00,56.0,42.3,29.06,SSW,211,0.0,2.2,60,0.00,,---,0.00,VWS V14.00,2013-10-06 11:24:00,
2013-10-06 06:30:00,56.0,42.3,29.06,SSW,211,0.0,2.2,60,0.00,,---,0.00,VWS V14.00,2013-10-06 11:30:00,
2013-10-06 06:33:00,56.0,42.3,29.06,SSW,211,0.0,2.2,60,0.00,,---,0.00,VWS V14.00,2013-10-06 11:33:00,
2013-10-06 06:39:00,56.0,42.3,29.06,West,264,0.0,0.0,60,0.00,,---,0.00,VWS V14.00,2013-10-06 11:39:00,
2013-10-06 06:45:00,55.8,41.7,29.06,WSW,241,0.0,0.0,59,0.00,,---,0.00,VWS V14.00,2013-10-06 11:45:00,
2013-10-06 06:48:00,55.8,41.7,29.06,WSW,241,0.0,0.0,59,0.00,,---,0.00,VWS V14.00,2013-10-06 11:48:00,
2013-10-06 06:51:00,55.6,41.5,29.06,WSW,241,0.0,0.0,59,0.00,,---,0.00,VWS V14.00,2013-10-06 11:51:00,
2013-10-06 06:57:00,55.6,41.5,29.06,WSW,241,0.0,0.0,59,0.00,,---,0.00,VWS V14.00,2013-10-06 11:57:00,
2013-10-06 07:00:00,55.6,41.5,29.06,West,268,0.0,0.0,59,0.00,,---,0.00,VWS V14.00,2013-10-06 12:00:00,
2013-10-06 07:03:00,55.6,41.5,29.06,WSW,243,0.0,0.0,59,0.00,,---,0.00,VWS V14.00,2013-10-06 12:03:00,
2013-10-06 07:06:00,55.5,41.4,29.06,WSW,250,0.0,0.0,59,0.00,,---,0.00,VWS V14.00,2013-10-06 12:06:00,
2013-10-06 07:09:00,55.5,41.4,29.06,WSW,250,0.0,0.0,59,0.00,,---,0.00,VWS V14.00,2013-10-06 12:09:00,
2013-10-06 07:12:00,55.3,41.2,29.06,WSW,250,0.0,0.0,59,0.00,,---,0.00,VWS V14.00,2013-10-06 12:12:00,
2013-10-06 07:15:00,55.3,41.2,29.06,SW,232,0.0,0.0,59,0.00,,---,0.00,VWS V14.00,2013-10-06 12:15:00,
2013-10-06 07:17:00,55.3,41.2,29.06,SW,232,0.0,0.0,59,0.00,,---,0.00,VWS V14.00,2013-10-06 12:17:00,
2013-10-06 07:18:00,55.3,41.2,29.06,SW,232,0.0,0.0,59,0.00,,---,0.00,VWS V14.00,2013-10-06 12:18:00,
2013-10-06 07:24:00,55.3,41.2,29.06,SW,223,0.0,0.0,59,0.00,,---,0.00,VWS V14.00,2013-10-06 12:24:00,
2013-10-06 07:27:00,55.1,41.0,29.06,North,357,0.0,0.0,59,0.00,,---,0.00,VWS V14.00,2013-10-06 12:27:00,
2013-10-06 07:30:00,55.1,41.0,29.06,North,357,0.0,0.0,59,0.00,,---,0.00,VWS V14.00,2013-10-06 12:30:00,
2013-10-06 07:32:00,55.1,41.0,29.06,SSW,204,0.0,0.0,59,0.00,,---,0.00,VWS V14.00,2013-10-06 12:32:00,
2013-10-06 07:36:00,55.1,41.0,29.06,SSW,204,0.0,0.0,59,0.00,,---,0.00,VWS V14.00,2013-10-06 12:36:00,
2013-10-06 07:39:00,55.1,41.0,29.09,West,268,0.0,0.0,59,0.00,,---,0.00,VWS V14.00,2013-10-06 12:39:00,
2013-10-06 07:42:00,55.1,41.0,29.09,WNW,292,0.0,0.0,59,0.00,,---,0.00,VWS V14.00,2013-10-06 12:42:00,
2013-10-06 07:48:00,55.3,41.2,29.09,WSW,248,0.0,0.0,59,0.00,,---,0.00,VWS V14.00,2013-10-06 12:48:00,
2013-10-06 07:54:00,55.3,41.2,29.09,NNE,13,0.0,0.0,59,0.00,,---,0.00,VWS V14.00,2013-10-06 12:54:00,
2013-10-06 07:57:00,55.3,41.2,29.09,NNE,23,0.0,0.0,59,0.00,,---,0.00,VWS V14.00,2013-10-06 12:57:00,
2013-10-06 08:02:00,55.3,41.2,29.09,North,4,0.0,0.0,59,0.00,,---,0.00,VWS V14.00,2013-10-06 13:02:00,
2013-10-06 08:03:00,55.3,41.2,29.09,North,4,0.0,0.0,59,0.00,,---,0.00,VWS V14.00,2013-10-06 13:03:00,
2013-10-06 08:09:00,56.4,42.7,29.09,WSW,242,2.7,2.7,60,0.00,,---,0.00,VWS V14.00,2013-10-06 13:09:00,
2013-10-06 08:12:00,56.4,42.7,29.09,SSW,199,0.0,2.7,60,0.00,,---,0.00,VWS V14.00,2013-10-06 13:12:00,
2013-10-06 08:15:00,56.4,42.7,29.09,East,97,0.0,2.7,60,0.00,,---,0.00,VWS V14.00,2013-10-06 13:15:00,
2013-10-06 08:17:00,56.4,42.7,29.09,East,97,0.0,2.7,60,0.00,,---,0.00,VWS V14.00,2013-10-06 13:17:00,
2013-10-06 08:18:00,56.4,42.7,29.09,East,97,0.0,0.0,60,0.00,,---,0.00,VWS V14.00,2013-10-06 13:18:00,
2013-10-06 08:24:00,57.4,43.2,29.09,West,280,0.0,0.0,59,0.00,,---,0.00,VWS V14.00,2013-10-06 13:24:00,
2013-10-06 08:27:00,57.4,43.2,29.09,SW,218,0.0,0.0,59,0.00,,---,0.00,VWS V14.00,2013-10-06 13:27:00,
2013-10-06 08:30:00,58.2,43.9,29.09,SW,218,0.0,0.0,59,0.00,,---,0.00,VWS V14.00,2013-10-06 13:30:00,
2013-10-06 08:33:00,58.2,43.9,29.09,NW,324,0.0,0.0,59,0.00,,---,0.00,VWS V14.00,2013-10-06 13:33:00,
2013-10-06 08:36:00,58.5,44.3,29.09,WSW,255,0.0,0.0,59,0.00,,---,0.00,VWS V14.00,2013-10-06 13:36:00,
2013-10-06 08:39:00,58.5,44.3,29.09,WSW,255,0.0,0.0,59,0.00,,---,0.00,VWS V14.00,2013-10-06 13:39:00,
2013-10-06 08:42:00,58.5,44.3,29.09,West,265,0.0,0.0,59,0.00,,---,0.00,VWS V14.00,2013-10-06 13:42:00,
2013-10-06 08:45:00,58.5,44.3,29.09,North,7,0.0,0.0,59,0.00,,---,0.00,VWS V14.00,2013-10-06 13:45:00,
2013-10-06 08:48:00,58.5,44.3,29.09,WSW,254,3.6,3.6,59,0.00,,---,0.00,VWS V14.00,2013-10-06 13:48:00,
2013-10-06 08:54:00,61.4,46.0,29.09,SW,221,0.0,3.6,57,0.00,,---,0.00,VWS V14.00,2013-10-06 13:54:00,
2013-10-06 08:57:00,61.4,46.0,29.09,SW,221,0.0,3.6,57,0.00,,---,0.00,VWS V14.00,2013-10-06 13:57:00,
2013-10-06 09:00:00,61.4,46.0,29.09,South,187,0.0,3.6,57,0.00,,---,0.00,VWS V14.00,2013-10-06 14:00:00,
2013-10-06 09:02:00,61.4,46.0,29.09,SW,235,0.0,3.6,57,0.00,,---,0.00,VWS V14.00,2013-10-06 14:02:00,
2013-10-06 09:03:00,61.4,46.0,29.09,SW,235,0.0,0.0,57,0.00,,---,0.00,VWS V14.00,2013-10-06 14:03:00,
2013-10-06 09:06:00,61.4,46.0,29.09,SW,235,0.0,0.0,57,0.00,,---,0.00,VWS V14.00,2013-10-06 14:06:00,
2013-10-06 09:09:00,61.4,46.0,29.09,SSW,200,0.0,0.0,57,0.00,,---,0.00,VWS V14.00,2013-10-06 14:09:00,
2013-10-06 09:12:00,67.0,48.8,29.09,SSW,200,0.0,0.0,52,0.00,,---,0.00,VWS V14.00,2013-10-06 14:12:00,
2013-10-06 09:15:00,67.0,48.8,29.09,SW,232,0.0,0.0,52,0.00,,---,0.00,VWS V14.00,2013-10-06 14:15:00,
2013-10-06 09:17:00,67.0,48.8,29.09,North,8,0.0,0.0,52,0.00,,---,0.00,VWS V14.00,2013-10-06 14:17:00,
2013-10-06 09:18:00,67.0,48.8,29.09,North,8,0.0,0.0,52,0.00,,---,0.00,VWS V14.00,2013-10-06 14:18:00,
2013-10-06 09:21:00,67.0,48.8,29.09,ESE,104,0.0,0.0,52,0.00,,---,0.00,VWS V14.00,2013-10-06 14:21:00,
2013-10-06 09:27:00,67.0,48.8,29.09,North,0,0.0,0.0,52,0.00,,---,0.00,VWS V14.00,2013-10-06 14:27:00,
2013-10-06 09:30:00,67.0,48.8,29.09,North,0,0.0,0.0,52,0.00,,---,0.00,VWS V14.00,2013-10-06 14:30:00,
2013-10-06 09:32:00,67.0,48.8,29.09,North,0,0.0,0.0,52,0.00,,---,0.00,VWS V14.00,2013-10-06 14:32:00,
2013-10-06 09:33:00,67.0,48.8,29.09,SSW,193,0.0,0.0,52,0.00,,---,0.00,VWS V14.00,2013-10-06 14:33:00,
2013-10-06 09:39:00,73.1,51.1,29.09,SSE,166,3.1,3.1,46,0.00,,---,0.00,VWS V14.00,2013-10-06 14:39:00,
2013-10-06 09:42:00,73.1,51.1,29.09,NNE,32,0.0,3.1,46,0.00,,---,0.00,VWS V14.00,2013-10-06 14:42:00,
2013-10-06 09:45:00,73.1,51.1,29.09,SSE,160,2.7,3.1,46,0.00,,---,0.00,VWS V14.00,2013-10-06 14:45:00,
2013-10-06 09:48:00,73.1,51.1,29.09,SSW,199,2.7,3.1,46,0.00,,---,0.00,VWS V14.00,2013-10-06 14:48:00,
2013-10-06 09:51:00,73.1,51.1,29.09,SSW,199,2.7,2.7,46,0.00,,---,0.00,VWS V14.00,2013-10-06 14:51:00,
2013-10-06 09:54:00,73.1,51.1,29.09,NNE,30,3.1,3.1,46,0.00,,---,0.00,VWS V14.00,2013-10-06 14:54:00,
2013-10-06 09:57:00,73.1,51.1,29.09,East,98,3.1,3.1,46,0.00,,---,0.00,VWS V14.00,2013-10-06 14:57:00,
2013-10-06 10:00:00,73.1,51.1,29.09,South,180,3.6,3.6,46,0.00,,---,0.00,VWS V14.00,2013-10-06 15:00:00,
2013-10-06 10:02:00,73.1,51.1,29.09,SSW,205,0.0,3.6,46,0.00,,---,0.00,VWS V14.00,2013-10-06 15:02:00,
2013-10-06 10:06:00,73.1,51.1,29.09,SSW,205,0.0,0.0,46,0.00,,---,0.00,VWS V14.00,2013-10-06 15:06:00,
2013-10-06 10:09:00,73.1,51.1,29.09,SSW,211,0.0,0.0,46,0.00,,---,0.00,VWS V14.00,2013-10-06 15:09:00,
2013-10-06 10:12:00,73.1,51.1,29.09,NW,305,0.0,0.0,46,0.00,,---,0.00,VWS V14.00,2013-10-06 15:12:00,
2013-10-06 10:15:00,73.1,51.1,29.09,NNE,29,0.0,3.1,46,0.00,,---,0.00,VWS V14.00,2013-10-06 15:15:00,
2013-10-06 10:17:00,73.1,51.1,29.09,NNE,29,0.0,3.1,46,0.00,,---,0.00,VWS V14.00,2013-10-06 15:17:00,
2013-10-06 10:21:00,73.1,51.1,29.09,NNE,29,0.0,0.0,46,0.00,,---,0.00,VWS V14.00,2013-10-06 15:21:00,
2013-10-06 10:24:00,73.1,51.1,29.09,SW,224,0.0,3.1,46,0.00,,---,0.00,VWS V14.00,2013-10-06 15:24:00,
2013-10-06 10:27:00,73.1,51.1,29.09,SW,224,0.0,3.1,46,0.00,,---,0.00,VWS V14.00,2013-10-06 15:27:00,
2013-10-06 10:33:00,73.1,51.1,29.09,WNW,283,5.4,5.4,46,0.00,,---,0.00,VWS V14.00,2013-10-06 15:33:00,
2013-10-06 10:39:00,73.1,51.1,29.09,South,175,4.0,5.4,46,0.00,,---,0.00,VWS V14.00,2013-10-06 15:39:00,
2013-10-06 10:42:00,73.1,51.1,29.09,SSW,200,0.0,5.4,46,0.00,,---,0.00,VWS V14.00,2013-10-06 15:42:00,
2013-10-06 10:45:00,73.1,51.1,29.09,SSW,200,0.0,5.4,46,0.00,,---,0.00,VWS V14.00,2013-10-06 15:45:00,
2013-10-06 10:48:00,73.1,51.1,29.09,SSW,200,0.0,5.4,46,0.00,,---,0.00,VWS V14.00,2013-10-06 15:48:00,
2013-10-06 10:51:00,73.1,51.1,29.09,NNE,12,2.7,2.7,46,0.00,,---,0.00,VWS V14.00,2013-10-06 15:51:00,
2013-10-06 10:54:00,73.1,51.1,29.09,NNE,12,2.7,2.7,46,0.00,,---,0.00,VWS V14.00,2013-10-06 15:54:00,
2013-10-06 11:01:00,73.1,51.1,29.09,SSW,200,3.6,3.6,46,0.00,,---,0.00,VWS V14.00,2013-10-06 16:01:00,
2013-10-06 11:02:00,73.1,51.1,29.09,SSW,200,3.6,3.6,46,0.00,,---,0.00,VWS V14.00,2013-10-06 16:02:00,
2013-10-06 11:04:00,73.1,51.1,29.09,NNE,31,2.7,3.6,46,0.00,,---,0.00,VWS V14.00,2013-10-06 16:04:00,
2013-10-06 11:07:00,73.1,51.1,29.09,West,279,0.0,3.6,46,0.00,,---,0.00,VWS V14.00,2013-10-06 16:07:00,
2013-10-06 11:10:00,73.1,51.1,29.09,WSW,237,2.2,3.6,46,0.00,,---,0.00,VWS V14.00,2013-10-06 16:10:00,
2013-10-06 11:13:00,73.1,51.1,29.09,WSW,237,2.2,3.6,46,0.00,,---,0.00,VWS V14.00,2013-10-06 16:13:00,
2013-10-06 11:16:00,73.1,51.1,29.09,NNE,12,2.2,3.6,46,0.00,,---,0.00,VWS V14.00,2013-10-06 16:16:00,
2013-10-06 11:19:00,73.1,51.1,29.09,North,7,0.0,0.0,46,0.00,,---,0.00,VWS V14.00,2013-10-06 16:19:00,
2013-10-06 11:25:00,73.1,51.1,29.09,South,191,4.0,4.0,46,0.00,,---,0.00,VWS V14.00,2013-10-06 16:25:00,
2013-10-06 11:28:00,73.1,51.1,29.09,NNE,17,2.2,4.0,46,0.00,,---,0.00,VWS V14.00,2013-10-06 16:28:00,
2013-10-06 11:33:00,73.1,51.1,29.09,SSW,199,0.0,4.0,46,0.00,,---,0.00,VWS V14.00,2013-10-06 16:33:00,
2013-10-06 11:34:00,73.1,51.1,29.09,SSW,199,0.0,0.0,46,0.00,,---,0.00,VWS V14.00,2013-10-06 16:34:00,
2013-10-06 11:37:00,73.1,51.1,29.09,ENE,60,2.7,2.7,46,0.00,,---,0.00,VWS V14.00,2013-10-06 16:37:00,
2013-10-06 11:40:00,73.1,51.1,29.09,ESE,112,0.0,2.7,46,0.00,,---,0.00,VWS V14.00,2013-10-06 16:40:00,
2013-10-06 11:46:00,73.1,51.1,29.09,North,357,0.0,2.7,46,0.00,,---,0.00,VWS V14.00,2013-10-06 16:46:00,
2013-10-06 11:49:00,73.1,51.1,29.09,SW,234,3.1,3.1,46,0.00,,---,0.00,VWS V14.00,2013-10-06 16:49:00,
2013-10-06 11:52:00,73.1,51.1,29.09,West,263,2.7,3.1,46,0.00,,---,0.00,VWS V14.00,2013-10-06 16:52:00,
2013-10-06 11:55:00,73.1,51.1,29.09,SSE,164,0.0,3.1,46,0.00,,---,0.00,VWS V14.00,2013-10-06 16:55:00,
2013-10-06 11:58:00,73.1,51.1,29.09,NW,326,0.0,3.1,46,0.00,,---,0.00,VWS V14.00,2013-10-06 16:58:00,
2013-10-06 12:01:00,73.1,51.1,29.09,SSE,163,2.7,3.1,46,0.00,,---,0.00,VWS V14.00,2013-10-06 17:01:00,
2013-10-06 12:02:00,73.1,51.1,29.09,North,0,2.2,3.1,46,0.00,,---,0.00,VWS V14.00,2013-10-06 17:02:00,
2013-10-06 12:04:00,73.1,51.1,29.09,North,0,2.2,2.2,46,0.00,,---,0.00,VWS V14.00,2013-10-06 17:04:00,
2013-10-06 12:10:00,73.1,51.1,29.09,South,175,0.0,2.7,46,0.00,,---,0.00,VWS V14.00,2013-10-06 17:10:00,
2013-10-06 12:16:00,73.1,51.1,29.09,South,185,2.2,3.1,46,0.00,,---,0.00,VWS V14.00,2013-10-06 17:16:00,
2013-10-06 12:18:00,73.1,51.1,29.09,SW,224,2.2,3.1,46,0.00,,---,0.00,VWS V14.00,2013-10-06 17:18:00,
2013-10-06 12:19:00,73.1,51.1,29.09,SW,224,2.2,2.2,46,0.00,,---,0.00,VWS V14.00,2013-10-06 17:19:00,
2013-10-06 12:25:00,73.1,51.1,29.09,SSW,192,3.1,3.1,46,0.00,,---,0.00,VWS V14.00,2013-10-06 17:25:00,
2013-10-06 12:31:00,73.1,51.1,29.09,NNE,32,3.6,3.6,46,0.00,,---,0.00,VWS V14.00,2013-10-06 17:31:00,
2013-10-06 12:32:00,73.1,51.1,29.09,NNE,32,3.6,3.6,46,0.00,,---,0.00,VWS V14.00,2013-10-06 17:32:00,
2013-10-06 12:34:00,73.1,51.1,29.09,NNE,21,5.4,5.4,46,0.00,,---,0.00,VWS V14.00,2013-10-06 17:34:00,
2013-10-06 12:40:00,73.1,51.1,29.09,SE,144,2.7,5.4,46,0.00,,---,0.00,VWS V14.00,2013-10-06 17:40:00,
2013-10-06 12:43:00,73.1,51.1,29.09,SE,144,2.7,5.4,46,0.00,,---,0.00,VWS V14.00,2013-10-06 17:43:00,
2013-10-06 12:48:00,73.1,51.1,29.09,NE,49,2.2,5.4,46,0.00,,---,0.00,VWS V14.00,2013-10-06 17:48:00,
2013-10-06 12:49:00,73.1,51.1,29.09,ENE,59,0.0,2.2,46,0.00,,---,0.00,VWS V14.00,2013-10-06 17:49:00,
2013-10-06 12:52:00,73.1,51.1,29.09,WSW,258,0.0,2.7,46,0.00,,---,0.00,VWS V14.00,2013-10-06 17:52:00,
2013-10-06 12:55:00,73.1,51.1,29.09,WSW,258,0.0,2.7,46,0.00,,---,0.00,VWS V14.00,2013-10-06 17:55:00,
2013-10-06 12:58:00,73.1,51.1,29.09,South,188,0.0,2.7,46,0.00,,---,0.00,VWS V14.00,2013-10-06 17:58:00,
2013-10-06 13:02:00,73.1,51.1,29.09,SE,125,2.7,2.7,46,0.00,,---,0.00,VWS V14.00,2013-10-06 18:02:00,
2013-10-06 13:04:00,73.1,51.1,29.09,SE,125,2.7,2.7,46,0.00,,---,0.00,VWS V14.00,2013-10-06 18:04:00,
2013-10-06 13:07:00,73.1,51.1,29.06,South,179,3.1,3.6,46,0.00,,---,0.00,VWS V14.00,2013-10-06 18:07:00,
2013-10-06 13:10:00,73.1,51.1,29.06,South,179,3.1,3.6,46,0.00,,---,0.00,VWS V14.00,2013-10-06 18:10:00,
2013-10-06 13:13:00,73.1,51.1,29.06,South,179,3.1,3.6,46,0.00,,---,0.00,VWS V14.00,2013-10-06 18:13:00,
2013-10-06 13:19:00,73.1,51.1,29.06,South,176,2.7,2.7,46,0.00,,---,0.00,VWS V14.00,2013-10-06 18:19:00,
2013-10-06 13:25:00,73.1,51.1,29.06,NNE,15,2.2,3.6,46,0.00,,---,0.00,VWS V14.00,2013-10-06 18:25:00,
2013-10-06 13:28:00,73.1,51.1,29.06,NNE,15,2.2,3.6,46,0.00,,---,0.00,VWS V14.00,2013-10-06 18:28:00,
2013-10-06 13:31:00,73.1,51.1,29.06,ESE,105,3.1,3.6,46,0.00,,---,0.00,VWS V14.00,2013-10-06 18:31:00,
2013-10-06 13:34:00,73.1,51.1,29.06,South,189,0.0,0.0,46,0.00,,---,0.00,VWS V14.00,2013-10-06 18:34:00,
2013-10-06 13:37:00,73.1,51.1,29.06,WSW,253,0.0,0.0,46,0.00,,---,0.00,VWS V14.00,2013-10-06 18:37:00,
2013-10-06 13:40:00,73.1,51.1,29.06,SSE,147,3.1,3.1,46,0.00,,---,0.00,VWS V14.00,2013-10-06 18:40:00,
2013-10-06 13:43:00,73.1,51.1,29.06,South,186,0.0,3.1,46,0.00,,---,0.00,VWS V14.00,2013-10-06 18:43:00,
2013-10-06 13:46:00,73.1,51.1,29.06,NE,41,0.0,3.1,46,0.00,,---,0.00,VWS V14.00,2013-10-06 18:46:00,
2013-10-06 13:47:00,73.1,51.1,29.06,NE,41,0.0,3.1,46,0.00,,---,0.00,VWS V14.00,2013-10-06 18:47:00,
2013-10-06 13:49:00,73.1,51.1,29.06,NE,41,0.0,0.0,46,0.00,,---,0.00,VWS V14.00,2013-10-06 18:49:00,
2013-10-06 13:52:00,81.0,48.4,29.06,NE,41,0.0,0.0,32,0.00,,---,0.00,VWS V14.00,2013-10-06 18:52:00,
2013-10-06 13:58:00,81.0,48.4,29.06,SSW,212,0.0,0.0,32,0.00,,---,0.00,VWS V14.00,2013-10-06 18:58:00,
2013-10-06 14:02:00,81.0,48.4,29.06,SE,136,0.0,0.0,32,0.00,,---,0.00,VWS V14.00,2013-10-06 19:02:00,
2013-10-06 14:07:00,81.0,48.4,29.06,West,274,0.0,2.7,32,0.00,,---,0.00,VWS V14.00,2013-10-06 19:07:00,
2013-10-06 14:10:00,81.0,48.4,29.06,North,10,2.7,2.7,32,0.00,,---,0.00,VWS V14.00,2013-10-06 19:10:00,
2013-10-06 14:13:00,81.0,48.4,29.06,SSE,163,4.0,4.0,32,0.00,,---,0.00,VWS V14.00,2013-10-06 19:13:00,
2013-10-06 14:16:00,81.0,48.4,29.06,SSE,163,4.0,4.0,32,0.00,,---,0.00,VWS V14.00,2013-10-06 19:16:00,
2013-10-06 14:17:00,81.0,48.4,29.06,North,9,4.0,4.0,32,0.00,,---,0.00,VWS V14.00,2013-10-06 19:17:00,
2013-10-06 14:19:00,81.0,48.4,29.06,North,9,0.0,4.0,32,0.00,,---,0.00,VWS V14.00,2013-10-06 19:19:00,
2013-10-06 14:22:00,81.0,48.4,29.06,North,9,0.0,4.0,32,0.00,,---,0.00,VWS V14.00,2013-10-06 19:22:00,
2013-10-06 14:28:00,81.0,48.4,29.06,ENE,58,2.2,4.0,32,0.00,,---,0.00,VWS V14.00,2013-10-06 19:28:00,
2013-10-06 14:31:00,81.0,48.4,29.06,SSW,197,3.6,4.0,32,0.00,,---,0.00,VWS V14.00,2013-10-06 19:31:00,
2013-10-06 14:33:00,81.0,48.4,29.06,North,357,3.1,4.0,32,0.00,,---,0.00,VWS V14.00,2013-10-06 19:33:00,
2013-10-06 14:34:00,81.0,48.4,29.06,North,357,3.1,3.1,32,0.00,,---,0.00,VWS V14.00,2013-10-06 19:34:00,
2013-10-06 14:37:00,81.0,48.4,29.06,North,357,3.1,3.1,32,0.00,,---,0.00,VWS V14.00,2013-10-06 19:37:00,
2013-10-06 14:40:00,81.0,48.4,29.06,SSW,192,5.8,5.8,32,0.00,,---,0.00,VWS V14.00,2013-10-06 19:40:00,
2013-10-06 14:46:00,81.0,48.4,29.06,SSW,203,0.0,5.8,32,0.00,,---,0.00,VWS V14.00,2013-10-06 19:46:00,
2013-10-06 14:47:00,81.0,48.4,29.06,SSW,203,0.0,5.8,32,0.00,,---,0.00,VWS V14.00,2013-10-06 19:47:00,
2013-10-06 14:49:00,81.0,48.4,29.06,SW,215,0.0,0.0,32,0.00,,---,0.00,VWS V14.00,2013-10-06 19:49:00,
2013-10-06 14:52:00,81.0,48.4,29.06,SW,215,0.0,0.0,32,0.00,,---,0.00,VWS V14.00,2013-10-06 19:52:00,
2013-10-06 14:55:00,81.0,48.4,29.06,SW,226,2.2,2.2,32,0.00,,---,0.00,VWS V14.00,2013-10-06 19:55:00,
2013-10-06 14:58:00,81.0,48.4,29.06,South,180,3.6,3.6,32,0.00,,---,0.00,VWS V14.00,2013-10-06 19:58:00,
2013-10-06 15:01:00,81.0,48.4,29.06,South,180,3.6,3.6,32,0.00,,---,0.00,VWS V14.00,2013-10-06 20:01:00,
2013-10-06 15:04:00,81.0,48.4,29.06,NNE,30,3.1,3.1,32,0.00,,---,0.00,VWS V14.00,2013-10-06 20:04:00,
2013-10-06 15:07:00,81.0,48.4,29.06,South,191,0.0,3.1,32,0.00,,---,0.00,VWS V14.00,2013-10-06 20:07:00,
2013-10-06 15:13:00,81.0,48.4,29.06,SSE,158,3.6,3.6,32,0.00,,---,0.00,VWS V14.00,2013-10-06 20:13:00,
2013-10-06 15:16:00,81.0,48.4,29.06,SSE,167,4.0,4.0,32,0.00,,---,0.00,VWS V14.00,2013-10-06 20:16:00,
2013-10-06 15:22:00,81.0,48.4,29.06,NNE,23,0.0,4.0,32,0.00,,---,0.00,VWS V14.00,2013-10-06 20:22:00,
2013-10-06 15:25:00,81.0,48.4,29.06,NNE,23,0.0,4.0,32,0.00,,---,0.00,VWS V14.00,2013-10-06 20:25:00,
2013-10-06 15:28:00,81.0,48.4,29.06,NNE,23,0.0,4.0,32,0.00,,---,0.00,VWS V14.00,2013-10-06 20:28:00,
2013-10-06 15:31:00,81.0,48.4,29.06,SSW,194,3.1,4.0,32,0.00,,---,0.00,VWS V14.00,2013-10-06 20:31:00,
2013-10-06 15:33:00,81.0,48.4,29.06,South,184,0.0,4.0,32,0.00,,---,0.00,VWS V14.00,2013-10-06 20:33:00,
2013-10-06 15:37:00,81.0,48.4,29.06,South,184,0.0,0.0,32,0.00,,---,0.00,VWS V14.00,2013-10-06 20:37:00,
2013-10-06 15:40:00,81.0,48.4,29.06,South,179,2.2,2.2,32,0.00,,---,0.00,VWS V14.00,2013-10-06 20:40:00,
2013-10-06 15:43:00,81.0,48.4,29.06,SSE,166,2.2,2.2,32,0.00,,---,0.00,VWS V14.00,2013-10-06 20:43:00,
2013-10-06 15:46:00,81.0,48.4,29.06,SSW,204,3.1,3.1,32,0.00,,---,0.00,VWS V14.00,2013-10-06 20:46:00,
2013-10-06 15:49:00,81.0,48.4,29.06,SSW,204,3.1,3.1,32,0.00,,---,0.00,VWS V14.00,2013-10-06 20:49:00,
2013-10-06 15:55:00,81.0,48.4,29.06,East,93,4.0,4.0,32,0.00,,---,0.00,VWS V14.00,2013-10-06 20:55:00,
2013-10-06 15:58:00,81.0,48.4,29.06,South,182,3.1,4.0,32,0.00,,---,0.00,VWS V14.00,2013-10-06 20:58:00,
2013-10-06 16:02:00,81.0,48.4,29.06,SSE,162,4.9,4.9,32,0.00,,---,0.00,VWS V14.00,2013-10-06 21:02:00,
2013-10-06 16:10:00,81.0,48.4,29.06,SSE,157,2.2,4.9,32,0.00,,---,0.00,VWS V14.00,2013-10-06 21:10:00,
2013-10-06 16:13:00,81.0,48.4,29.06,SSE,157,2.2,4.9,32,0.00,,---,0.00,VWS V14.00,2013-10-06 21:13:00,
2013-10-06 16:16:00,81.0,48.4,29.06,North,2,3.1,4.9,32,0.00,,---,0.00,VWS V14.00,2013-10-06 21:16:00,
2013-10-06 16:18:00,81.0,48.4,29.06,North,2,3.1,4.9,32,0.00,,---,0.00,VWS V14.00,2013-10-06 21:18:00,
2013-10-06 16:19:00,81.0,48.4,29.06,South,171,2.7,3.1,32,0.00,,---,0.00,VWS V14.00,2013-10-06 21:19:00,
2013-10-06 16:22:00,81.0,48.4,29.06,South,171,2.7,3.1,32,0.00,,---,0.00,VWS V14.00,2013-10-06 21:22:00,
2013-10-06 16:25:00,81.0,48.4,29.06,ESE,115,2.7,3.1,32,0.00,,---,0.00,VWS V14.00,2013-10-06 21:25:00,
2013-10-06 16:28:00,81.0,48.4,29.06,ESE,115,2.7,3.1,32,0.00,,---,0.00,VWS V14.00,2013-10-06 21:28:00,
2013-10-06 16:32:00,81.0,48.4,29.06,SSW,199,3.6,3.6,32,0.00,,---,0.00,VWS V14.00,2013-10-06 21:32:00,
2013-10-06 16:34:00,81.0,48.4,29.06,SSW,199,3.6,3.6,32,0.00,,---,0.00,VWS V14.00,2013-10-06 21:34:00,
2013-10-06 16:37:00,81.0,48.4,29.06,East,100,0.0,3.6,32,0.00,,---,0.00,VWS V14.00,2013-10-06 21:37:00,
2013-10-06 16:40:00,77.6,44.6,29.06,East,100,0.0,3.6,31,0.00,,---,0.00,VWS V14.00,2013-10-06 21:40:00,
2013-10-06 16:43:00,77.6,44.6,29.06,North,7,2.7,3.6,31,0.00,,---,0.00,VWS V14.00,2013-10-06 21:43:00,
2013-10-06 16:46:00,77.6,44.6,29.06,ENE,69,2.2,3.6,31,0.00,,---,0.00,VWS V14.00,2013-10-06 21:46:00,
2013-10-06 16:47:00,77.6,44.6,29.06,ENE,69,2.2,3.6,31,0.00,,---,0.00,VWS V14.00,2013-10-06 21:47:00,
2013-10-06 16:49:00,77.6,44.6,29.06,ENE,69,2.2,2.2,31,0.00,,---,0.00,VWS V14.00,2013-10-06 21:49:00,
2013-10-06 16:55:00,77.6,44.6,29.06,East,93,3.1,3.1,31,0.00,,---,0.00,VWS V14.00,2013-10-06 21:55:00,
2013-10-06 16:59:00,77.6,44.6,29.06,East,93,3.1,3.1,31,0.00,,---,0.00,VWS V14.00,2013-10-06 21:59:00,
2013-10-06 17:02:00,77.6,44.6,29.06,East,90,2.2,3.1,31,0.00,,---,0.00,VWS V14.00,2013-10-06 22:02:00,
2013-10-06 17:05:00,77.6,44.6,29.06,South,176,0.0,2.7,31,0.00,,---,0.00,VWS V14.00,2013-10-06 22:05:00,
2013-10-06 17:08:00,77.6,44.6,29.06,ESE,110,0.0,2.7,31,0.00,,---,0.00,VWS V14.00,2013-10-06 22:08:00,
2013-10-06 17:14:00,77.6,44.6,29.06,ESE,110,0.0,2.7,31,0.00,,---,0.00,VWS V14.00,2013-10-06 22:14:00,
2013-10-06 17:17:00,77.6,44.6,29.06,SW,224,0.0,2.7,31,0.00,,---,0.00,VWS V14.00,2013-10-06 22:17:00,
2013-10-06 17:20:00,77.6,44.6,29.06,SW,224,0.0,0.0,31,0.00,,---,0.00,VWS V14.00,2013-10-06 22:20:00,
2013-10-06 17:23:00,75.4,43.6,29.06,South,191,2.2,3.1,32,0.00,,---,0.00,VWS V14.00,2013-10-06 22:23:00,
2013-10-06 17:26:00,75.4,43.6,29.06,South,191,2.2,3.1,32,0.00,,---,0.00,VWS V14.00,2013-10-06 22:26:00,
2013-10-06 17:29:00,75.4,43.6,29.06,North,357,2.7,3.1,32,0.00,,---,0.00,VWS V14.00,2013-10-06 22:29:00,
2013-10-06 17:35:00,75.4,43.6,29.06,SW,219,0.0,3.6,32,0.00,,---,0.00,VWS V14.00,2013-10-06 22:35:00,
2013-10-06 17:38:00,75.4,43.6,29.06,SW,219,0.0,3.6,32,0.00,,---,0.00,VWS V14.00,2013-10-06 22:38:00,
2013-10-06 17:41:00,75.4,43.6,29.06,WSW,257,0.0,3.6,32,0.00,,---,0.00,VWS V14.00,2013-10-06 22:41:00,
2013-10-06 17:47:00,75.4,43.6,29.06,SW,225,3.1,3.6,32,0.00,,---,0.00,VWS V14.00,2013-10-06 22:47:00,
2013-10-06 17:50:00,75.4,43.6,29.06,ESE,116,0.0,0.0,32,0.00,,---,0.00,VWS V14.00,2013-10-06 22:50:00,
2013-10-06 17:53:00,75.4,43.6,29.06,SSE,158,0.0,0.0,32,0.00,,---,0.00,VWS V14.00,2013-10-06 22:53:00,
2013-10-06 17:56:00,73.3,42.5,29.06,South,180,0.0,0.0,33,0.00,,---,0.00,VWS V14.00,2013-10-06 22:56:00,
2013-10-06 17:59:00,73.3,42.5,29.06,South,180,0.0,2.7,33,0.00,,---,0.00,VWS V14.00,2013-10-06 22:59:00,
2013-10-06 18:02:00,73.3,42.5,29.06,North,7,0.0,2.7,33,0.00,,---,0.00,VWS V14.00,2013-10-06 23:02:00,
2013-10-06 18:08:00,72.7,42.0,29.06,WSW,240,4.9,4.9,33,0.00,,---,0.00,VWS V14.00,2013-10-06 23:08:00,
2013-10-06 18:14:00,72.7,42.0,29.06,SSW,196,0.0,4.9,33,0.00,,---,0.00,VWS V14.00,2013-10-06 23:14:00,
2013-10-06 18:17:00,72.7,42.0,29.06,SSE,161,0.0,4.9,33,0.00,,---,0.00,VWS V14.00,2013-10-06 23:17:00,
2013-10-06 18:18:00,72.7,42.0,29.06,SSE,161,0.0,4.9,33,0.00,,---,0.00,VWS V14.00,2013-10-06 23:18:00,
2013-10-06 18:20:00,72.7,42.0,29.06,South,186,3.1,3.1,33,0.00,,---,0.00,VWS V14.00,2013-10-06 23:20:00,
2013-10-06 18:23:00,71.5,40.9,29.06,South,186,3.1,3.1,33,0.00,,---,0.00,VWS V14.00,2013-10-06 23:23:00,
2013-10-06 18:26:00,71.5,40.9,29.06,East,89,2.7,3.1,33,0.00,,---,0.00,VWS V14.00,2013-10-06 23:26:00,
2013-10-06 18:32:00,71.5,40.9,29.06,North,353,0.0,3.1,33,0.00,,---,0.00,VWS V14.00,2013-10-06 23:32:00,
2013-10-06 18:38:00,71.5,40.9,29.06,WSW,239,0.0,0.0,33,0.00,,---,0.00,VWS V14.00,2013-10-06 23:38:00,
2013-10-06 18:44:00,71.5,40.9,29.09,NNE,19,0.0,0.0,33,0.00,,---,0.00,VWS V14.00,2013-10-06 23:44:00,
2013-10-06 18:47:00,71.5,40.9,29.09,NNE,19,0.0,0.0,33,0.00,,---,0.00,VWS V14.00,2013-10-06 23:47:00,
2013-10-06 18:50:00,71.5,40.9,29.09,NNE,19,0.0,0.0,33,0.00,,---,0.00,VWS V14.00,2013-10-06 23:50:00,
2013-10-06 18:53:00,71.5,40.9,29.09,North,1,2.7,2.7,33,0.00,,---,0.00,VWS V14.00,2013-10-06 23:53:00,
2013-10-06 18:56:00,69.7,40.1,29.09,SW,233,0.0,2.7,34,0.00,,---,0.00,VWS V14.00,2013-10-06 23:56:00,
2013-10-06 18:59:00,69.7,40.1,29.09,SW,233,0.0,2.7,34,0.00,,---,0.00,VWS V14.00,2013-10-06 23:59:00,
2013-10-06 19:03:00,69.7,40.1,29.09,West,265,2.7,2.7,34,0.00,,---,0.00,VWS V14.00,2013-10-07 00:03:00,
2013-10-06 19:05:00,69.1,39.6,29.09,WSW,251,0.0,2.7,34,0.00,,---,0.00,VWS V14.00,2013-10-07 00:05:00,
2013-10-06 19:08:00,69.1,39.6,29.09,WSW,251,0.0,2.7,34,0.00,,---,0.00,VWS V14.00,2013-10-07 00:08:00,
2013-10-06 19:14:00,69.1,39.6,29.09,SW,236,0.0,2.7,34,0.00,,---,0.00,VWS V14.00,2013-10-07 00:14:00,
2013-10-06 19:17:00,68.4,39.7,29.09,SSE,160,0.0,2.7,35,0.00,,---,0.00,VWS V14.00,2013-10-07 00:17:00,
2013-10-06 19:20:00,68.4,39.7,29.09,SSE,160,0.0,0.0,35,0.00,,---,0.00,VWS V14.00,2013-10-07 00:20:00,
2013-10-06 19:23:00,68.4,39.7,29.09,SSE,160,0.0,0.0,35,0.00,,---,0.00,VWS V14.00,2013-10-07 00:23:00,
2013-10-06 19:26:00,68.4,39.7,29.09,SSE,160,0.0,0.0,35,0.00,,---,0.00,VWS V14.00,2013-10-07 00:26:00,
2013-10-06 19:29:00,68.4,39.7,29.09,SSE,160,0.0,0.0,35,0.00,,---,0.00,VWS V14.00,2013-10-07 00:29:00,
2013-10-06 19:32:00,68.4,39.7,29.09,SSE,160,0.0,0.0,35,0.00,,---,0.00,VWS V14.00,2013-10-07 00:32:00,
2013-10-06 19:35:00,68.4,39.7,29.09,SSE,160,0.0,0.0,35,0.00,,---,0.00,VWS V14.00,2013-10-07 00:35:00,
2013-10-06 19:38:00,67.5,39.7,29.09,ESE,121,0.0,0.0,36,0.00,,---,0.00,VWS V14.00,2013-10-07 00:38:00,
2013-10-06 19:41:00,67.5,39.7,29.09,SSW,205,0.0,0.0,36,0.00,,---,0.00,VWS V14.00,2013-10-07 00:41:00,
2013-10-06 19:47:00,67.2,39.3,29.09,SSW,205,0.0,0.0,36,0.00,,---,0.00,VWS V14.00,2013-10-07 00:47:00,
2013-10-06 19:50:00,67.2,39.3,29.09,SSW,205,0.0,0.0,36,0.00,,---,0.00,VWS V14.00,2013-10-07 00:50:00,
2013-10-06 19:53:00,67.2,39.3,29.09,SSW,205,0.0,0.0,36,0.00,,---,0.00,VWS V14.00,2013-10-07 00:53:00,
2013-10-06 19:56:00,67.2,39.3,29.09,WNW,291,0.0,0.0,36,0.00,,---,0.00,VWS V14.00,2013-10-07 00:56:00,
2013-10-06 19:59:00,67.2,39.3,29.09,North,3,0.0,0.0,36,0.00,,---,0.00,VWS V14.00,2013-10-07 00:59:00,
2013-10-06 20:02:00,67.2,39.3,29.09,North,3,0.0,0.0,36,0.00,,---,0.00,VWS V14.00,2013-10-07 01:02:00,
2013-10-06 20:03:00,67.2,39.3,29.09,North,3,0.0,0.0,36,0.00,,---,0.00,VWS V14.00,2013-10-07 01:03:00,
2013-10-06 20:08:00,67.2,39.3,29.09,North,0,0.0,2.2,36,0.00,,---,0.00,VWS V14.00,2013-10-07 01:08:00,
2013-10-06 20:11:00,67.2,39.3,29.09,North,1,0.0,2.2,36,0.00,,---,0.00,VWS V14.00,2013-10-07 01:11:00,
2013-10-06 20:14:00,67.2,39.3,29.09,North,1,0.0,2.2,36,0.00,,---,0.00,VWS V14.00,2013-10-07 01:14:00,
2013-10-06 20:17:00,67.2,39.3,29.09,North,1,0.0,2.2,36,0.00,,---,0.00,VWS V14.00,2013-10-07 01:17:00,
2013-10-06 20:18:00,67.2,39.3,29.09,North,1,0.0,2.2,36,0.00,,---,0.00,VWS V14.00,2013-10-07 01:18:00,
2013-10-06 20:20:00,67.2,39.3,29.09,North,353,2.2,2.2,36,0.00,,---,0.00,VWS V14.00,2013-10-07 01:20:00,
2013-10-06 20:23:00,67.2,39.3,29.09,North,353,0.0,2.2,36,0.00,,---,0.00,VWS V14.00,2013-10-07 01:23:00,
2013-10-06 20:26:00,67.2,39.3,29.09,North,353,0.0,2.2,36,0.00,,---,0.00,VWS V14.00,2013-10-07 01:26:00,
2013-10-06 20:29:00,65.7,38.8,29.09,North,353,0.0,2.2,37,0.00,,---,0.00,VWS V14.00,2013-10-07 01:29:00,
2013-10-06 20:32:00,65.5,38.6,29.09,North,353,0.0,2.2,37,0.00,,---,0.00,VWS V14.00,2013-10-07 01:32:00,
2013-10-06 20:35:00,65.5,39.3,29.09,SSW,196,4.0,4.9,38,0.00,,---,0.00,VWS V14.00,2013-10-07 01:35:00,
2013-10-06 20:38:00,65.5,39.3,29.09,SSW,196,0.0,4.9,38,0.00,,---,0.00,VWS V14.00,2013-10-07 01:38:00,
2013-10-06 20:44:00,65.5,39.3,29.09,SSW,196,0.0,4.9,38,0.00,,---,0.00,VWS V14.00,2013-10-07 01:44:00,
2013-10-06 20:47:00,65.2,39.0,29.09,SSW,196,0.0,4.9,38,0.00,,---,0.00,VWS V14.00,2013-10-07 01:47:00,
2013-10-06 20:50:00,65.2,39.0,29.09,SSW,196,2.7,2.7,38,0.00,,---,0.00,VWS V14.00,2013-10-07 01:50:00,
2013-10-06 20:53:00,65.0,38.8,29.09,SSW,196,0.0,2.7,38,0.00,,---,0.00,VWS V14.00,2013-10-07 01:53:00,
2013-10-06 20:56:00,65.0,38.8,29.09,SSW,196,0.0,2.7,38,0.00,,---,0.00,VWS V14.00,2013-10-07 01:56:00,
2013-10-06 20:59:00,64.8,39.3,29.09,SSW,196,0.0,2.7,39,0.00,,---,0.00,VWS V14.00,2013-10-07 01:59:00,
2013-10-06 21:02:00,64.8,39.3,29.09,SW,235,0.0,2.7,39,0.00,,---,0.00,VWS V14.00,2013-10-07 02:02:00,
2013-10-06 21:05:00,64.8,39.3,29.09,SW,235,0.0,0.0,39,0.00,,---,0.00,VWS V14.00,2013-10-07 02:05:00,
2013-10-06 21:08:00,64.8,39.3,29.12,SW,223,0.0,0.0,39,0.00,,---,0.00,VWS V14.00,2013-10-07 02:08:00,
2013-10-06 21:14:00,64.8,39.3,29.12,SW,223,0.0,0.0,39,0.00,,---,0.00,VWS V14.00,2013-10-07 02:14:00,
2013-10-06 21:17:00,64.8,39.3,29.12,SW,223,0.0,0.0,39,0.00,,---,0.00,VWS V14.00,2013-10-07 02:17:00,
2013-10-06 21:20:00,64.8,39.3,29.12,SW,223,0.0,0.0,39,0.00,,---,0.00,VWS V14.00,2013-10-07 02:20:00,
2013-10-06 21:26:00,64.3,39.5,29.12,SW,223,3.6,3.6,40,0.00,,---,0.00,VWS V14.00,2013-10-07 02:26:00,
2013-10-06 21:29:00,64.3,39.5,29.12,SW,223,0.0,3.6,40,0.00,,---,0.00,VWS V14.00,2013-10-07 02:29:00,
2013-10-06 21:32:00,64.3,39.5,29.12,SW,223,0.0,3.6,40,0.00,,---,0.00,VWS V14.00,2013-10-07 02:32:00,
2013-10-06 21:35:00,64.3,39.5,29.12,North,0,0.0,0.0,40,0.00,,---,0.00,VWS V14.00,2013-10-07 02:35:00,
2013-10-06 21:38:00,64.3,39.5,29.09,NNE,14,2.7,2.7,40,0.00,,---,0.00,VWS V14.00,2013-10-07 02:38:00,
2013-10-06 21:41:00,64.3,39.5,29.09,NNE,14,2.7,2.7,40,0.00,,---,0.00,VWS V14.00,2013-10-07 02:41:00,
2013-10-06 21:44:00,64.3,39.5,29.09,SW,227,0.0,2.7,40,0.00,,---,0.00,VWS V14.00,2013-10-07 02:44:00,
2013-10-06 21:47:00,63.9,39.2,29.09,SW,227,0.0,2.7,40,0.00,,---,0.00,VWS V14.00,2013-10-07 02:47:00,
2013-10-06 21:50:00,63.9,39.2,29.09,SW,227,0.0,0.0,40,0.00,,---,0.00,VWS V14.00,2013-10-07 02:50:00,
2013-10-06 21:53:00,63.9,39.8,29.09,SW,227,0.0,0.0,41,0.00,,---,0.00,VWS V14.00,2013-10-07 02:53:00,
2013-10-06 21:56:00,63.9,39.8,29.12,SW,227,0.0,0.0,41,0.00,,---,0.00,VWS V14.00,2013-10-07 02:56:00,
2013-10-06 21:59:00,63.9,39.8,29.12,West,261,2.7,2.7,41,0.00,,---,0.00,VWS V14.00,2013-10-07 02:59:00,
2013-10-06 22:02:00,63.7,39.6,29.12,West,261,2.7,2.7,41,0.00,,---,0.00,VWS V14.00,2013-10-07 03:02:00,
2013-10-06 22:03:00,63.7,39.6,29.12,West,261,2.7,2.7,41,0.00,,---,0.00,VWS V14.00,2013-10-07 03:03:00,
2013-10-06 22:08:00,63.7,39.6,29.12,SSE,166,0.0,2.7,41,0.00,,---,0.00,VWS V14.00,2013-10-07 03:08:00,
2013-10-06 22:15:00,63.7,39.6,29.12,SW,235,0.0,2.7,41,0.00,,---,0.00,VWS V14.00,2013-10-07 03:15:00,
2013-10-06 22:18:00,63.7,39.6,29.12,SW,235,0.0,2.7,41,0.00,,---,0.00,VWS V14.00,2013-10-07 03:18:00,
2013-10-06 22:24:00,63.7,39.6,29.12,SW,235,0.0,0.0,41,0.00,,---,0.00,VWS V14.00,2013-10-07 03:24:00,
2013-10-06 22:30:00,63.6,40.1,29.12,SW,235,0.0,0.0,42,0.00,,---,0.00,VWS V14.00,2013-10-07 03:30:00,
2013-10-06 22:32:00,63.6,40.1,29.12,SW,235,0.0,0.0,42,0.00,,---,0.00,VWS V14.00,2013-10-07 03:32:00,
2013-10-06 22:36:00,63.6,40.1,29.12,SW,235,0.0,0.0,42,0.00,,---,0.00,VWS V14.00,2013-10-07 03:36:00,
2013-10-06 22:39:00,63.6,40.1,29.12,WSW,237,0.0,0.0,42,0.00,,---,0.00,VWS V14.00,2013-10-07 03:39:00,
2013-10-06 22:45:00,63.4,40.5,29.12,WSW,237,0.0,0.0,43,0.00,,---,0.00,VWS V14.00,2013-10-07 03:45:00,
2013-10-06 22:47:00,63.4,40.5,29.12,NE,35,0.0,0.0,43,0.00,,---,0.00,VWS V14.00,2013-10-07 03:47:00,
2013-10-06 22:51:00,63.4,40.5,29.12,SW,224,0.0,0.0,43,0.00,,---,0.00,VWS V14.00,2013-10-07 03:51:00,
2013-10-06 22:54:00,63.4,40.5,29.12,SW,224,0.0,0.0,43,0.00,,---,0.00,VWS V14.00,2013-10-07 03:54:00,
2013-10-06 22:57:00,63.4,40.5,29.12,NNW,346,0.0,0.0,43,0.00,,---,0.00,VWS V14.00,2013-10-07 03:57:00,
2013-10-06 23:00:00,63.4,40.5,29.12,SSW,208,0.0,0.0,43,0.00,,---,0.00,VWS V14.00,2013-10-07 04:00:00,
2013-10-06 23:03:00,63.4,40.5,29.12,South,187,0.0,0.0,43,0.00,,---,0.00,VWS V14.00,2013-10-07 04:03:00,
2013-10-06 23:06:00,63.4,40.5,29.12,NW,314,2.2,2.2,43,0.00,,---,0.00,VWS V14.00,2013-10-07 04:06:00,
2013-10-06 23:09:00,63.4,40.5,29.12,SSW,207,2.7,2.7,43,0.00,,---,0.00,VWS V14.00,2013-10-07 04:09:00,
2013-10-06 23:12:00,63.4,40.5,29.12,NNW,334,0.0,2.7,43,0.00,,---,0.00,VWS V14.00,2013-10-07 04:12:00,
2013-10-06 23:18:00,63.4,40.5,29.12,ESE,102,0.0,2.7,43,0.00,,---,0.00,VWS V14.00,2013-10-07 04:18:00,
2013-10-06 23:21:00,63.4,40.5,29.12,WSW,258,0.0,2.7,43,0.00,,---,0.00,VWS V14.00,2013-10-07 04:21:00,
2013-10-06 23:24:00,63.2,40.3,29.12,South,177,0.0,3.1,43,0.00,,---,0.00,VWS V14.00,2013-10-07 04:24:00,
2013-10-06 23:27:00,63.2,40.3,29.12,SSW,199,2.7,3.1,43,0.00,,---,0.00,VWS V14.00,2013-10-07 04:27:00,
2013-10-06 23:30:00,63.2,40.3,29.12,NE,47,3.1,3.1,43,0.00,,---,0.00,VWS V14.00,2013-10-07 04:30:00,
2013-10-06 23:32:00,63.2,40.3,29.12,SE,135,2.7,3.1,43,0.00,,---,0.00,VWS V14.00,2013-10-07 04:32:00,
2013-10-06 23:36:00,63.2,40.3,29.12,SE,135,2.7,2.7,43,0.00,,---,0.00,VWS V14.00,2013-10-07 04:36:00,
2013-10-06 23:39:00,63.2,40.3,29.12,SSW,203,0.0,2.7,43,0.00,,---,0.00,VWS V14.00,2013-10-07 04:39:00,
2013-10-06 23:42:00,63.2,40.3,29.12,NNW,332,3.1,3.1,43,0.00,,---,0.00,VWS V14.00,2013-10-07 04:42:00,
2013-10-06 23:45:00,63.2,40.3,29.12,South,190,3.1,3.1,43,0.00,,---,0.00,VWS V14.00,2013-10-07 04:45:00,
2013-10-06 23:48:00,63.2,41.0,29.12,South,174,2.2,3.1,44,0.00,,---,0.00,VWS V14.00,2013-10-07 04:48:00,
2013-10-06 23:51:00,63.2,41.0,29.12,WSW,246,0.0,4.0,44,0.00,,---,0.00,VWS V14.00,2013-10-07 04:51:00,
2013-10-06 23:57:00,63.0,40.8,29.09,ESE,104,2.2,4.0,44,0.00,,---,0.00,VWS V14.00,2013-10-07 04:57:00,